STSAT-2C

Last updated on Thu Nov 14 2019 04:22:50 GMT+0000 (Coordinated Universal Time)

1 39068U 13003A 19316.83475344 .11474664 -72442-6 13058-3 0 9990 2 39068 80.1354 354.2078 0013524 288.4311 71.5514 16.49540072368637

Satellite not in orbit